Wind_Speed
19 18 18 17 16 15 14 14 14 12 12 12 12 12 11 11 10 10 9 9 9 9 9 10 9 9 9 10 9 9 9 9 9 9 9 9 10 10 10 10 11 12 12 13
20 19 19 19 18 17 15 15 14 13 12 12 12 12 11 11 11 10 10 10 9 9 10 10 10 10 10 10 10 10 10 10 10 10 10 10 10 11 11 12 12 13 13 12
22 21 21 21 18 17 17 16 15 14 13 13 13 13 11 11 11 11 10 10 10 10 10 10 10 10 10 10 10 10 10 11 11 11 11 10 11 12 12 12 13 13 13 12
23 22 23 21 19 19 18 17 16 15 14 14 14 13 12 12 12 11 11 11 11 10 11 11 10 10 10 10 10 10 10 11 11 11 11 11 12 13 12 13 13 14 13 13
24 24 24 22 19 19 19 17 16 16 15 14 14 14 14 12 12 12 12 12 12 12 12 12 11 11 10 10 10 10 11 11 11 12 12 13 13 13 13 13 14 14 14 14
26 26 26 23 20 20 20 19 18 17 16 15 15 15 14 13 12 12 13 13 13 13 13 12 13 12 11 11 11 11 11 11 11 12 12 13 14 14 14 14 14 14 14 14
28 27 27 23 21 21 21 19 19 19 18 16 16 16 15 14 14 13 13 13 13 13 13 13 13 13 13 12 12 12 12 12 12 12 12 13 14 14 15 15 15 15 14 15
28 28 27 24 24 23 22 21 21 20 19 18 17 17 16 15 15 15 15 14 14 14 13 13 13 13 13 13 13 14 14 13 13 14 14 14 14 14 14 15 15 15 15 15
30 28 25 25 26 25 25 24 22 21 21 20 19 19 18 17 17 17 16 16 15 14 14 14 14 14 14 14 15 15 15 15 15 16 15 15 15 15 15 15 15 15 16 16
29 28 27 27 27 26 26 25 24 22 23 22 21 21 20 19 19 18 17 17 17 16 16 15 15 15 15 16 16 16 16 16 17 16 16 16 16 16 16 16 16 16 16 17
31 30 29 29 28 27 27 26 25 25 24 23 22 21 21 21 20 19 18 18 17 17 17 17 17 17 17 17 17 17 17 17 17 17 17 17 17 17 17 17 17 17 18 18
31 31 30 30 30 29 29 28 26 25 24 24 23 22 22 22 21 20 20 19 19 18 18 18 18 18 18 18 19 18 18 18 18 18 18 18 18 18 18 18 18 18 19 20
33 33 33 32 31 31 30 29 28 26 25 24 24 23 23 23 22 22 21 21 21 20 20 19 19 19 19 19 19 19 19 19 19 20 20 20 20 20 19 19 20 20 20 21
33 33 33 32 32 32 30 30 29 29 27 26 25 25 24 24 24 23 22 22 22 22 21 20 20 20 20 20 20 20 20 20 20 21 21 22 21 21 21 22 21 22 22 22
32 32 32 32 32 32 32 30 30 29 28 27 26 26 25 25 24 24 23 23 22 22 22 21 21 21 21 21 21 22 22 22 22 22 23 23 23 23 23 23 23 23 24 24
32 33 33 33 32 32 32 32 31 30 29 28 27 27 26 26 25 24 24 24 23 23 22 22 22 22 22 22 22 23 23 24 24 24 24 24 24 24 24 25 25 26 26 27
33 33 33 33 32 32 32 32 31 30 30 29 29 28 27 27 26 26 25 25 24 24 24 23 23 24 24 24 24 24 25 25 25 25 25 26 26 26 27 27 28 28 28 28
32 33 33 33 33 32 32 32 31 31 31 30 29 28 28 28 27 27 26 26 26 25 25 25 25 25 25 25 26 26 27 27 27 27 27 28 28 29 29 29 30 30 30 31
33 33 34 34 33 33 32 31 32 32 31 31 31 30 29 29 29 28 28 27 27 27 26 26 26 26 26 27 27 28 28 29 29 29 30 30 30 31 31 31 31 32 32 32
34 34 34 34 33 33 32 32 32 32 32 32 32 32 31 31 30 30 29 29 28 28 28 27 28 27 28 28 29 29 30 30 31 31 32 32 32 32 33 33 33 33 33 34
34 34 34 34 34 34 34 33 33 32 32 33 33 33 32 32 31 31 30 29 29 30 29 29 29 29 29 30 30 30 31 31 32 32 32 33 33 33 34 34 34 35 35 36
33 34 34 34 35 35 34 34 33 33 33 34 34 33 33 33 32 32 31 31 31 32 31 31 31 31 31 31 31 31 32 32 32 32 33 33 34 34 35 35 35 36 37 37
33 34 35 35 35 34 35 34 34 33 34 34 34 33 33 33 33 33 32 32 32 32 32 32 32 32 32 32 31 31 32 32 33 33 34 34 35 35 36 36 36 37 37 38
33 34 35 35 35 35 34 34 33 34 33 33 33 33 33 34 34 34 34 33 33 32 32 31 32 32 32 32 33 33 33 33 34 34 35 35 36 36 36 36 36 37 37 38
34 35 36 35 35 34 34 34 34 34 34 33 33 33 33 33 34 34 33 33 32 32 32 31 31 32 32 32 32 33 33 33 33 33 34 34 35 36 35 35 35 36 36 37
34 35 35 35 35 34 34 35 35 35 34 33 33 33 33 33 33 33 33 32 32 32 31 31 31 32 32 32 33 33 33 33 33 33 33 34 34 34 35 35 35 36 36 36
35 35 35 35 35 35 34 34 34 34 33 33 32 32 32 32 32 32 32 31 31 31 31 31 31 31 31 32 32 32 33 33 33 33 33 33 33 34 34 34 35 35 36 36
Wind_Direction
250 252 252 256 259 258 257 257 257 260 265 271 278 282 281 279 279 280 276 272 270 266 265 264 264 262 260 258 258 254 252 255 257 253 252 256 257 262 264 268 275 279 283 284
247 250 251 253 257 257 256 258 259 259 260 264 271 278 277 276 274 277 278 278 273 272 268 264 263 262 263 259 260 259 256 254 255 255 256 258 262 268 272 274 278 281 285 287
246 248 251 253 255 257 257 258 258 258 259 263 270 275 278 276 272 273 278 278 275 274 269 264 264 266 263 262 261 258 255 251 254 257 261 262 265 269 274 278 279 282 283 284
244 245 247 253 253 254 255 255 255 255 257 261 267 271 272 271 269 270 275 276 272 272 271 267 266 266 264 263 262 260 253 253 256 261 263 264 268 271 274 277 279 281 280 283
243 245 249 250 250 251 254 254 254 255 256 260 263 266 265 265 267 268 271 274 273 269 269 270 269 266 265 263 265 264 262 260 259 262 265 267 268 271 273 276 280 280 280 281
242 245 248 251 249 250 252 253 255 257 256 257 262 264 265 265 264 265 268 272 274 274 271 270 269 267 264 264 266 266 264 263 262 263 266 267 269 271 275 277 279 281 282 282
243 246 249 249 247 249 252 254 255 257 257 258 259 262 265 267 266 266 267 269 272 275 274 269 266 266 264 264 264 263 264 263 263 265 268 271 273 274 275 277 280 283 284 284
243 245 247 248 247 249 252 253 254 256 258 258 257 259 262 263 264 264 266 268 269 272 272 269 266 264 264 263 263 263 263 263 264 265 269 273 276 277 277 279 281 282 284 285
245 247 249 248 249 250 251 253 254 254 256 257 257 257 258 261 262 263 266 270 271 271 269 268 265 262 263 263 262 263 262 263 264 267 269 271 274 276 278 282 283 283 284 287
244 245 247 247 248 249 250 252 254 253 255 256 257 256 256 258 261 264 267 269 271 272 269 268 266 263 264 264 263 263 264 265 268 268 269 270 273 276 279 281 283 284 286 289
242 243 244 245 248 248 247 250 253 254 255 257 256 255 254 257 260 262 264 267 269 271 269 266 265 264 264 264 265 265 266 267 268 269 269 271 272 274 277 278 280 283 285 287
242 243 245 247 248 248 248 249 252 253 253 254 253 253 253 256 258 260 262 265 267 269 270 268 265 264 265 265 265 266 267 268 269 270 269 270 272 273 275 276 278 281 284 286
243 245 246 247 249 250 251 250 250 251 251 252 252 252 253 255 256 258 260 263 266 268 268 267 265 263 264 265 266 267 267 268 269 271 271 272 273 272 272 274 278 281 283 285
243 245 247 247 248 248 247 248 249 249 249 250 252 253 253 254 255 257 260 262 264 265 266 266 266 264 263 264 266 267 269 270 270 271 271 273 273 272 273 275 277 281 283 285
245 246 247 247 247 246 246 245 245 247 248 250 252 253 253 255 255 257 260 263 263 264 265 264 265 265 265 266 267 267 268 269 270 270 270 271 273 273 273 275 277 280 283 285
247 248 247 246 246 245 246 244 245 246 248 249 251 252 253 254 255 257 259 261 261 263 265 266 265 266 265 266 268 268 267 267 268 269 269 270 271 272 272 274 276 279 282 284
247 248 246 245 246 246 247 247 246 246 248 249 250 252 254 254 255 255 257 259 261 263 265 266 267 267 266 267 268 269 268 267 268 268 269 269 270 272 274 275 277 279 281 283
246 246 246 246 246 247 247 247 247 246 247 248 249 251 253 254 255 256 256 258 260 262 263 264 267 267 267 268 268 269 269 268 267 268 269 270 272 273 274 276 278 279 281 282
245 245 246 247 247 247 248 247 247 247 249 250 249 250 253 256 257 258 258 258 258 260 262 264 266 267 268 268 268 269 269 268 268 268 269 270 272 273 275 276 278 280 282 283
246 247 247 247 247 249 248 248 248 249 251 252 251 252 254 256 257 258 258 258 258 260 262 264 265 266 268 269 269 270 270 269 268 268 270 271 273 274 275 276 277 279 281 283
247 247 247 246 248 248 249 249 249 250 251 252 253 253 255 255 256 257 257 258 258 260 261 263 265 267 269 270 269 269 269 269 269 270 271 273 274 275 276 276 277 279 281 282
247 246 247 247 249 249 249 249 250 251 252 254 254 254 255 255 255 256 257 258 259 260 261 262 265 267 268 269 270 270 271 270 270 271 272 274 275 276 277 278 279 280 281 283
248 248 248 249 250 250 250 250 250 252 254 255 255 255 254 254 254 255 256 257 259 261 262 263 264 265 267 269 270 271 272 271 272 273 274 275 277 278 279 280 281 281 282 283
248 248 249 250 250 250 251 250 250 251 253 255 256 256 255 254 253 254 256 257 258 260 262 263 265 265 267 270 271 272 274 274 273 275 276 277 278 279 280 282 282 283 283 283
247 248 248 249 249 249 250 250 250 251 252 254 256 256 256 256 255 255 255 256 258 259 260 263 265 266 267 270 272 273 275 275 275 276 278 279 279 280 281 282 283 284 284 283
248 249 249 250 250 250 250 250 250 251 252 252 254 255 255 256 256 255 254 255 256 257 260 263 266 266 267 270 272 274 275 276 277 278 279 280 281 281 281 282 283 284 285 285
248 249 249 249 250 249 250 249 248 248 250 251 253 255 255 256 256 255 255 255 256 258 260 264 267 268 269 271 273 274 275 277 278 279 280 281 281 282 282 283 284 285 285 285
Height
5824 5826 5826 5827 5827 5828 5829 5830 5831 5832 5832 5832 5832 5831 5831 5831 5831 5831 5831 5831 5831 5831 5832 5832 5833 5834 5834 5835 5836 5837 5838 5839 5840 5841 5842 5842 5843 5843 5844 5845 5845 5845 5845 5845
5819 5821 5822 5822 5823 5824 5826 5827 5828 5829 5829 5829 5829 5829 5828 5828 5828 5828 5829 5829 5829 5829 5829 5830 5831 5831 5832 5833 5833 5834 5835 5836 5837 5838 5839 5840 5840 5841 5841 5842 5842 5842 5842 5841
5814 5816 5816 5818 5820 5821 5822 5823 5824 5825 5827 5826 5826 5826 5826 5826 5826 5826 5827 5827 5827 5827 5827 5827 5828 5829 5830 5830 5831 5831 5832 5833 5834 5835 5836 5837 5837 5838 5838 5838 5838 5838 5838 5838
5808 5810 5811 5816 5816 5817 5817 5819 5820 5821 5822 5823 5823 5823 5823 5823 5824 5824 5824 5824 5824 5825 5825 5825 5826 5826 5827 5827 5828 5829 5830 5831 5832 5832 5833 5834 5834 5834 5835 5835 5835 5835 5834 5834
5802 5803 5806 5809 5811 5812 5813 5814 5816 5817 5818 5819 5819 5820 5820 5820 5821 5821 5822 5822 5822 5822 5822 5822 5823 5824 5824 5825 5825 5826 5827 5827 5828 5829 5830 5830 5831 5831 5831 5831 5831 5831 5830 5830
5796 5798 5800 5805 5806 5806 5809 5810 5811 5812 5813 5815 5815 5816 5817 5817 5817 5818 5818 5819 5819 5819 5819 5820 5820 5820 5821 5822 5822 5823 5824 5824 5825 5826 5826 5827 5827 5827 5827 5827 5827 5827 5826 5826
5789 5791 5793 5799 5800 5802 5805 5806 5806 5807 5809 5810 5811 5812 5813 5813 5814 5814 5815 5815 5815 5816 5816 5816 5817 5817 5818 5818 5819 5820 5820 5821 5822 5822 5823 5823 5823 5823 5823 5823 5823 5823 5822 5822
5782 5784 5789 5792 5794 5796 5798 5799 5800 5802 5803 5805 5806 5807 5808 5809 5810 5810 5811 5811 5812 5812 5812 5812 5813 5813 5814 5815 5815 5816 5817 5817 5818 5818 5819 5819 5819 5819 5819 5819 5819 5819 5818 5818
5776 5780 5783 5784 5787 5789 5791 5793 5794 5796 5798 5799 5801 5802 5804 5805 5805 5806 5807 5807 5807 5808 5808 5808 5809 5809 5810 5811 5811 5812 5812 5813 5814 5814 5815 5815 5815 5815 5815 5815 5815 5815 5814 5814
5769 5772 5775 5777 5779 5782 5785 5786 5788 5790 5792 5794 5795 5797 5798 5799 5800 5801 5802 5802 5803 5803 5803 5804 5804 5805 5806 5806 5806 5807 5808 5809 5809 5810 5810 5811 5811 5811 5811 5810 5810 5810 5809 5809
5761 5765 5767 5769 5772 5775 5777 5779 5781 5783 5785 5787 5789 5791 5792 5794 5795 5795 5796 5797 5797 5798 5799 5799 5799 5800 5801 5801 5802 5802 5803 5804 5804 5805 5805 5805 5806 5806 5806 5806 5805 5805 5805 5804
5753 5757 5759 5762 5764 5767 5769 5772 5774 5776 5778 5780 5782 5784 5786 5787 5788 5789 5790 5791 5792 5793 5793 5794 5794 5795 5796 5796 5797 5798 5798 5798 5799 5799 5800 5800 5800 5800 5800 5800 5800 5799 5799 5798
5745 5748 5751 5754 5756 5759 5761 5764 5766 5769 5771 5773 5775 5777 5778 5780 5782 5783 5784 5785 5786 5787 5787 5788 5788 5789 5790 5791 5791 5792 5793 5793 5793 5794 5794 5794 5795 5795 5795 5795 5794 5794 5793 5792
5736 5739 5742 5745 5748 5750 5752 5755 5758 5761 5763 5765 5768 5770 5771 5773 5775 5776 5777 5778 5779 5780 5781 5782 5782 5783 5784 5784 5785 5786 5786 5787 5787 5787 5788 5788 5788 5788 5788 5788 5788 5787 5787 5786
5728 5730 5733 5736 5739 5742 5744 5747 5750 5752 5755 5758 5760 5762 5764 5765 5767 5769 5770 5771 5772 5773 5774 5775 5776 5777 5777 5778 5778 5779 5779 5780 5780 5781 5781 5781 5781 5781 5781 5781 5781 5780 5780 5779
5718 5721 5724 5727 5730 5733 5735 5738 5741 5744 5747 5749 5752 5754 5756 5758 5759 5761 5762 5763 5764 5766 5767 5768 5769 5770 5770 5771 5771 5772 5773 5773 5773 5774 5774 5774 5774 5774 5774 5774 5773 5773 5772 5771
5709 5712 5715 5718 5721 5724 5727 5730 5733 5735 5738 5741 5743 5746 5748 5749 5751 5753 5755 5756 5757 5759 5760 5761 5761 5762 5763 5763 5764 5765 5765 5765 5766 5766 5766 5766 5766 5766 5766 5766 5765 5765 5764 5763
5700 5703 5706 5709 5712 5715 5718 5721 5724 5726 5729 5731 5734 5737 5739 5741 5743 5745 5746 5748 5749 5751 5752 5753 5754 5754 5755 5756 5756 5757 5757 5757 5758 5758 5758 5758 5758 5757 5757 5757 5756 5756 5755 5753
5691 5694 5697 5700 5703 5706 5709 5712 5715 5717 5720 5722 5725 5727 5730 5732 5734 5736 5737 5739 5740 5742 5744 5744 5745 5746 5746 5747 5747 5748 5748 5748 5748 5749 5749 5749 5748 5748 5748 5747 5747 5746 5745 5744
5682 5685 5688 5691 5694 5697 5700 5702 5705 5708 5710 5713 5715 5718 5720 5722 5724 5726 5728 5730 5731 5733 5734 5735 5736 5737 5737 5738 5738 5738 5738 5739 5739 5739 5739 5738 5738 5738 5737 5737 5736 5736 5735 5734
5673 5676 5679 5682 5684 5687 5690 5692 5695 5698 5700 5703 5705 5708 5710 5712 5714 5716 5718 5720 5722 5723 5725 5726 5727 5727 5728 5728 5729 5729 5729 5729 5729 5729 5728 5728 5728 5727 5727 5726 5725 5725 5724 5722
5664 5667 5670 5672 5674 5677 5680 5682 5685 5688 5690 5693 5695 5698 5700 5702 5704 5706 5708 5710 5712 5713 5715 5716 5717 5717 5718 5718 5719 5719 5719 5719 5718 5718 5718 5718 5717 5716 5716 5715 5714 5713 5712 5711
5655 5657 5660 5662 5665 5667 5670 5672 5675 5678 5680 5682 5685 5687 5689 5691 5694 5696 5699 5700 5702 5703 5704 5705 5706 5707 5707 5708 5708 5708 5708 5708 5708 5707 5707 5706 5706 5705 5704 5703 5702 5701 5700 5699
5645 5648 5650 5653 5655 5658 5660 5662 5665 5667 5670 5672 5674 5676 5678 5681 5683 5685 5688 5689 5691 5693 5694 5695 5695 5696 5697 5697 5698 5698 5697 5697 5697 5696 5695 5695 5694 5693 5692 5691 5690 5689 5688 5686
5636 5638 5640 5643 5645 5648 5650 5653 5655 5657 5659 5662 5664 5666 5668 5670 5673 5675 5677 5679 5680 5682 5683 5684 5685 5686 5686 5687 5687 5687 5687 5686 5686 5685 5684 5683 5682 5681 5680 5679 5678 5676 5675 5673
5626 5628 5630 5633 5636 5638 5641 5643 5645 5647 5649 5652 5654 5656 5658 5660 5662 5664 5666 5668 5670 5672 5673 5674 5675 5676 5676 5676 5676 5676 5675 5675 5674 5674 5673 5671 5670 5669 5668 5667 5666 5664 5663 5661
5616 5619 5621 5623 5626 5628 5631 5633 5635 5637 5640 5642 5644 5646 5648 5650 5652 5654 5656 5658 5660 5661 5663 5664 5665 5665 5666 5666 5666 5665 5665 5664 5663 5662 5661 5660 5659 5658 5656 5655 5654 5652 5651 5649